Location: Pandora
(40.9481°N, 83.9611°W)
Time: 05:59:59
(UTC-04:00)

N. Korean satellite - Visible Passes

Search period start: 18 September 2021 00:00
Search period end: 28 September 2021 00:00
Orbit: 448 x 499 km, 97.3° (Epoch: 17 September)

Date Brightness Start Highest point End Pass type
(mag) Time Alt. Az. Time Alt. Az. Time Alt. Az.
18 Sep 9.7 05:59:19 10° NE 06:01:28 15° E 06:03:38 10° SE visible
20 Sep 7.7 06:35:59 10° NNE 06:39:23 46° E 06:42:49 10° S visible
21 Sep 9.4 06:08:49 10° NE 06:11:32 20° E 06:14:16 10° SE visible
23 Sep 7.0 06:45:49 10° NNE 06:49:21 66° E 06:52:54 10° S visible
24 Sep 8.9 06:18:26 10° NE 06:21:31 27° E 06:24:38 10° SSE visible
25 Sep 9.9 05:51:56 10° ENE 05:53:36 13° E 05:55:14 10° ESE visible
26 Sep 6.6 06:55:40 10° NNE 06:59:15 89° W 07:02:51 10° SSW visible
27 Sep 8.3 06:28:05 10° NNE 06:31:27 37° E 06:34:49 10° SSE visible
